This is the latest recevied weather packets stored in our database for station/object K7SKM. If no packets are shown the sender has not sent any weather packets the latest 10 day(s).
| Time | Temp. | Humidity | Pressure | Rain* | Wind** | Luminosity | Snow |
|---|---|---|---|---|---|---|---|
| 1788306877 | 20° C | 65% | 1014.6 hPa | 0 mm | - | 89 W/m² | - |
| 1788306572 | 20° C | 65% | 1014.6 hPa | 0 mm | - | 83 W/m² | - |
| 1788306266 | 20° C | 64% | 1014.5 hPa | 0 mm | - | 64 W/m² | - |
| 1788305961 | 20° C | 64% | 1014.6 hPa | 0 mm | - | 81 W/m² | - |
| 1788305656 | 19.44° C | 64% | 1014.7 hPa | 0 mm | - | 86 W/m² | - |
| 1788305352 | 20° C | 65% | 1014.7 hPa | 0 mm | - | 108 W/m² | - |
| 1788305047 | 19.44° C | 65% | 1014.8 hPa | 0 mm | - | 75 W/m² | - |
| 1788304742 | 19.44° C | 66% | 1014.7 hPa | 0 mm | - | 80 W/m² | - |
| 1788304438 | 19.44° C | 66% | 1014.5 hPa | 0 mm | - | 59 W/m² | - |
| 1788304135 | 19.44° C | 66% | 1014.7 hPa | 0 mm | - | 60 W/m² | - |
| 1788303834 | 19.44° C | 66% | 1014.6 hPa | 0 mm | - | 71 W/m² | - |
| 1788303530 | 19.44° C | 67% | 1014.9 hPa | 0 mm | - | 72 W/m² | - |
| 1788303229 | 18.89° C | 67% | 1014.7 hPa | 0 mm | - | 67 W/m² | - |
| 1788302924 | 18.89° C | 68% | 1014.9 hPa | 0 mm | - | 72 W/m² | - |
| 1788302620 | 18.89° C | 68% | 1014.7 hPa | 0 mm | - | 70 W/m² | - |
| 1788302316 | 18.89° C | 69% | 1014.9 hPa | 0 mm | - | 56 W/m² | - |
| 1788302012 | 18.89° C | 68% | 1014.9 hPa | 0 mm | - | 49 W/m² | - |
| 1788301707 | 18.89° C | 68% | 1014.9 hPa | 0 mm | - | 55 W/m² | - |
| 1788301404 | 18.89° C | 68% | 1014.7 hPa | 0 mm | - | 60 W/m² | - |
| 1788301099 | 18.89° C | 67% | 1014.6 hPa | 0 mm | - | 61 W/m² | - |
| 1788300794 | 18.89° C | 68% | 1014.6 hPa | 0 mm | - | 51 W/m² | - |
| 1788300488 | 18.89° C | 68% | 1014.8 hPa | 0 mm | - | 58 W/m² | - |
| 1788300182 | 18.89° C | 68% | 1014.8 hPa | 0 mm | - | 43 W/m² | - |
| 1788299881 | 18.89° C | 68% | 1014.6 hPa | 0 mm | - | 45 W/m² | - |
| 1788299580 | 18.89° C | 67% | 1014.7 hPa | 0 mm | - | 62 W/m² | - |
* Rain latest hour (hover to see other rain measurements)
** Current wind speed in m/s (hover to see current wind gust speed)